Date,TemperatureHighF,TemperatureAvgF,TemperatureLowF,DewpointHighF,DewpointAvgF,DewpointLowF,HumidityHigh,HumidityAvg,HumidityLow,PressureMaxIn,PressureMinIn,WindSpeedMaxMPH,WindSpeedAvgMPH,GustSpeedMaxMPH,PrecipitationSumIn
2013-1-3,45.7,45.7,45.7,41.7,41.7,41.7,86,86,86,30.41,30.41,4,4,4,0.00
2013-1-5,50.9,50.9,50.9,46.4,46.4,46.4,85,85,85,30.17,30.17,5,5,6,0.00
2013-1-11,61.7,61.7,61.7,54.0,54.0,54.0,76,76,76,29.67,29.67,10,10,11,0.00
2013-1-15,51.8,51.8,51.8,43.7,43.7,43.7,74,74,74,29.88,29.88,4,4,4,0.00
2013-1-18,51.4,49.4,46.6,36.5,35.4,34.7,64,59,55,29.55,29.47,19,11,31,0.02
2013-1-19,37.4,37.4,37.4,34.2,34.2,34.2,88,88,88,29.61,29.61,0,0,0,0.00
2013-1-20,63.7,63.7,63.7,61.2,61.2,61.2,92,92,92,29.44,29.44,8,8,13,0.00
2013-1-22,54.3,54.2,54.1,45.5,45.0,44.6,73,72,70,29.58,29.58,8,8,11,0.00
2013-1-23,54.9,51.1,47.3,51.1,47.6,42.3,93,88,80,29.73,29.64,11,6,14,0.70
2013-1-28,49.5,49.5,49.5,39.2,39.2,39.2,68,68,68,29.85,29.85,6,5,8,0.00
2013-2-2,67.5,67.5,67.5,54.0,54.0,54.0,62,62,62,29.50,29.50,8,8,10,0.00
2013-2-3,49.6,49.6,49.6,43.7,43.7,43.7,80,80,80,29.35,29.35,6,6,8,0.00
2013-2-4,49.6,49.6,49.6,36.1,36.1,36.1,60,60,60,30.12,30.12,1,1,0,0.00
2013-2-7,43.5,43.5,43.5,43.2,43.2,43.2,99,99,99,29.44,29.44,5,5,9,0.00
2013-2-10,36.7,36.7,36.7,25.5,25.5,25.5,64,64,64,29.88,29.88,6,6,11,0.00
2013-2-11,44.4,44.2,43.3,37.2,35.3,33.8,76,71,67,29.73,29.70,18,13,42,0.09
2013-2-12,70.7,70.3,70.0,51.6,51.2,50.9,51,51,51,29.55,29.55,0,0,0,0.02
2013-2-17,51.6,51.6,51.6,44.2,44.2,44.2,76,76,76,30.00,30.00,0,0,0,0.00
2013-2-24,45.7,45.7,45.7,39.7,39.7,39.7,80,80,80,29.67,29.67,1,1,2,0.00
2013-2-26,48.7,48.7,48.7,41.4,41.4,41.4,76,76,76,30.06,30.06,0,0,0,0.00
2013-3-5,59.9,59.6,59.4,40.1,39.6,39.2,48,48,47,30.06,30.00,5,3,9,0.00
2013-3-6,59.9,59.9,59.9,40.1,40.1,40.1,48,48,48,30.00,30.00,2,2,3,0.00
2013-3-7,67.8,67.8,67.8,52.9,52.9,52.9,59,59,59,29.67,29.67,2,2,3,0.00
2013-3-10,58.5,58.5,58.5,56.3,56.3,56.3,93,93,93,29.50,29.50,8,8,8,0.00
2013-3-13,69.3,69.3,69.3,54.1,54.1,54.1,59,59,59,29.50,29.50,1,1,3,0.00
2013-3-17,52.7,52.6,52.5,35.2,35.2,35.1,52,52,51,30.00,30.00,12,11,23,0.00
2013-3-18,55.6,55.6,55.6,48.0,48.0,48.0,76,76,76,29.58,29.58,12,12,13,0.00
2013-3-23,57.7,57.7,57.7,47.5,47.5,47.5,69,69,69,29.76,29.76,4,4,8,0.00
2013-3-30,62.8,60.8,57.7,57.7,54.9,47.5,84,82,69,29.76,29.61,13,8,20,0.00
2013-4-2,57.0,57.0,57.0,56.3,56.3,56.3,98,98,98,29.41,29.41,5,5,6,0.00
2013-4-4,65.1,65.1,65.1,51.6,51.6,51.6,62,62,62,29.58,29.58,4,4,8,0.00
2013-4-7,68.2,66.9,65.7,49.3,48.8,48.4,54,52,51,29.64,29.64,6,6,11,0.00
2013-4-14,59.4,59.4,59.4,48.7,48.7,48.7,68,68,68,30.29,30.29,4,4,4,0.00
2013-4-23,61.3,61.3,61.3,56.1,56.1,56.1,83,83,83,30.12,30.12,0,0,1,0.00
2013-4-28,70.3,69.9,69.4,66.4,66.0,65.5,90,88,85,29.91,29.88,2,1,3,0.00
2013-4-30,87.4,86.7,85.8,53.4,48.7,43.3,33,27,22,30.00,30.00,11,7,15,0.00
2013-5-2,74.7,74.7,74.7,62.4,62.4,62.4,66,66,66,29.91,29.91,6,6,7,0.00
2013-5-6,61.7,61.7,61.7,61.3,61.3,61.3,99,99,99,29.91,29.91,2,2,4,0.00
2013-5-7,67.5,67.5,67.5,61.3,61.3,61.3,81,81,81,29.97,29.97,1,1,3,0.05
2013-5-10,71.2,71.1,70.9,62.8,62.8,62.8,76,75,75,29.91,29.91,3,2,4,0.00
2013-5-11,67.6,67.5,67.5,67.3,67.0,66.7,99,99,98,29.88,29.88,1,1,2,0.00
2013-5-15,60.1,60.1,60.1,54.9,54.9,54.9,83,83,83,29.85,29.85,2,2,2,0.00
2013-5-20,60.6,60.6,60.6,53.6,53.6,53.6,78,78,78,30.06,30.06,1,1,4,0.00
2013-5-21,62.1,62.1,62.1,51.6,51.6,51.6,69,69,69,30.00,30.00,4,4,5,0.00
2013-5-22,62.2,62.2,62.2,60.6,60.6,60.6,95,95,95,29.70,29.70,4,4,8,0.00
2013-5-23,69.4,69.4,69.4,59.2,59.2,59.2,70,70,70,29.58,29.58,4,4,7,0.00
2013-5-24,70.3,69.1,67.8,59.2,55.5,51.8,74,63,52,29.82,29.73,9,7,9,0.00
2013-5-25,69.4,69.4,69.4,52.5,52.5,52.5,55,55,55,29.82,29.82,2,2,4,0.00
2013-5-26,72.9,68.3,66.0,66.2,55.7,48.7,80,65,54,29.94,29.91,10,7,10,0.00
2013-5-28,70.3,63.2,59.7,54.5,53.6,51.8,83,73,52,29.88,29.76,4,3,6,0.00
2013-5-29,61.7,61.7,61.7,58.1,58.1,58.1,88,88,88,29.67,29.67,0,0,0,0.00
2013-6-1,64.2,63.7,63.3,56.1,55.9,55.6,77,76,75,29.70,29.70,7,5,8,0.00
2013-6-3,74.3,74.1,73.9,57.9,57.6,57.2,57,56,56,29.91,29.91,6,5,8,0.00
2013-6-4,73.6,71.1,69.4,67.6,65.8,62.6,93,84,69,29.94,29.94,5,3,8,0.00
2013-6-7,69.3,69.3,69.3,62.1,62.1,62.1,78,78,78,30.00,30.00,3,3,4,0.00
2013-6-9,68.9,68.4,68.2,66.7,66.3,66.0,93,93,93,29.91,29.91,4,3,5,0.00
2013-6-10,71.8,71.8,71.8,57.0,57.0,57.0,60,60,60,29.85,29.85,6,6,6,0.00
2013-6-15,84.0,84.0,84.0,63.3,63.3,63.3,50,50,50,30.00,30.00,3,3,3,0.00
2013-6-16,82.9,81.6,80.1,60.8,60.5,60.1,52,49,47,30.03,30.00,4,3,7,0.00
2013-6-21,74.5,71.1,70.0,64.4,62.0,61.2,74,73,71,30.00,29.97,0,0,0,0.00
2013-6-22,69.3,69.1,68.9,65.8,65.4,65.1,89,88,88,30.00,30.00,0,0,0,0.00
2013-6-23,82.0,82.0,82.0,64.8,64.8,64.8,56,56,56,29.97,29.97,3,3,3,0.00
2013-6-25,63.1,63.1,63.1,55.0,55.0,55.0,75,75,75,29.97,29.97,4,4,6,0.00
2013-6-27,59.5,59.5,59.5,54.9,54.9,54.9,85,85,85,30.06,30.06,4,4,8,0.00
2013-6-29,73.4,73.3,73.2,47.5,47.4,47.3,40,40,40,29.97,29.97,5,5,8,0.00
2013-6-30,72.5,72.3,72.0,48.7,48.6,48.6,44,43,43,30.03,30.03,2,1,3,0.00
2013-7-3,74.7,74.4,73.9,62.8,62.5,62.2,67,67,66,30.00,30.00,0,0,0,0.00
2013-7-5,90.7,90.7,90.7,50.0,50.0,50.0,25,25,25,30.03,30.03,5,5,8,0.00
2013-7-12,72.3,72.3,72.3,67.5,67.5,67.5,85,85,85,29.97,29.97,5,4,6,0.00
2013-7-13,72.1,72.1,72.1,70.0,70.0,70.0,93,93,93,30.00,30.00,0,0,0,0.00
2013-7-16,87.1,79.4,71.8,65.8,62.8,59.7,82,61,40,30.06,30.06,8,5,10,0.00
2013-7-17,70.2,70.1,70.0,63.0,62.6,62.4,78,77,77,30.06,30.03,0,0,0,0.00
2013-7-18,87.3,87.3,87.3,70.2,70.2,70.2,57,57,57,30.03,30.03,6,6,9,0.00
2013-7-19,76.5,75.2,73.9,69.4,68.4,67.3,80,80,79,30.00,30.00,2,2,2,0.00
2013-7-21,73.8,70.4,69.1,66.7,62.8,58.6,86,77,60,30.00,29.97,23,4,25,1.20
2013-7-22,88.2,88.2,88.2,68.2,68.2,68.2,52,52,52,29.91,29.91,9,9,12,0.00
2013-7-23,94.6,93.9,93.7,55.4,47.7,45.1,27,21,19,29.91,29.91,9,4,13,0.00
2013-7-27,94.5,80.7,78.4,67.5,67.2,66.4,69,65,40,29.94,29.91,11,3,12,0.00
2013-7-28,86.2,84.1,82.6,67.5,65.6,64.9,57,54,52,30.03,30.00,0,0,0,0.00
2013-7-29,94.3,93.6,91.6,61.5,55.6,51.4,37,28,24,30.00,29.97,8,6,9,0.00
2013-7-30,84.9,78.0,75.2,69.8,68.2,66.2,82,73,56,30.00,29.91,9,3,10,0.00
2013-7-31,83.5,83.2,82.9,58.5,58.1,57.7,43,43,42,29.94,29.94,6,5,8,0.00
2013-8-4,87.4,87.4,87.4,64.6,64.6,64.6,47,47,47,30.06,30.06,0,0,2,0.00
2013-8-6,96.1,93.8,92.7,64.0,63.4,62.2,39,37,33,29.97,29.94,6,4,9,0.00
2013-8-8,92.8,85.7,78.6,52.2,43.5,34.7,40,26,13,29.91,29.91,0,0,0,0.00
2013-8-9,79.5,79.3,79.2,61.5,60.9,60.1,55,54,52,29.88,29.82,8,6,8,0.00
2013-8-10,87.4,77.1,72.0,61.5,59.2,54.7,70,58,33,29.82,29.79,4,3,6,0.00
2013-8-11,86.0,74.1,71.1,59.5,59.1,59.0,66,61,41,29.91,29.88,8,4,9,0.00
2013-8-12,86.7,76.3,71.1,57.4,54.7,49.6,62,51,28,29.97,29.94,6,4,8,0.00
2013-8-13,88.3,76.1,69.4,60.8,55.6,53.4,57,50,37,29.97,29.94,11,4,12,0.00
2013-8-14,70.3,70.3,70.3,64.8,64.8,64.8,83,83,83,29.91,29.91,0,0,0,0.00
2013-8-15,73.9,73.9,73.9,63.0,63.0,63.0,69,69,69,29.97,29.97,5,5,6,0.00
2013-8-19,82.9,79.9,76.8,68.5,67.6,66.6,76,67,58,30.03,29.94,9,6,13,0.00
2013-8-20,76.3,75.1,73.9,71.8,71.2,70.7,93,88,83,29.94,29.94,4,3,4,0.05
2013-8-21,85.1,83.3,80.8,58.8,56.7,55.6,47,41,37,29.97,29.94,4,4,7,0.00
2013-8-22,81.9,80.8,79.5,61.9,61.5,61.3,54,52,50,29.97,29.97,3,2,4,0.00
2013-8-23,88.2,77.1,74.3,64.2,62.6,56.1,71,64,34,29.97,29.97,2,1,3,0.00
2013-8-24,85.1,78.4,71.8,67.1,65.1,63.0,74,64,55,29.97,29.88,4,3,8,0.00
2013-8-27,72.9,72.9,72.9,70.0,70.0,70.0,91,91,91,29.82,29.82,2,1,2,0.00
2013-8-28,74.8,74.3,73.8,74.1,73.7,73.0,99,98,98,29.88,29.88,3,2,3,0.00
2013-8-29,87.3,85.3,80.4,68.4,64.7,62.8,67,51,45,30.00,30.00,8,4,10,0.00
2013-8-30,71.8,71.8,71.8,68.5,68.5,68.5,90,90,90,30.00,30.00,0,0,0,0.00
2013-8-31,72.3,71.6,71.2,66.2,65.7,65.1,84,82,81,30.00,30.00,8,4,11,0.00
2013-9-1,72.5,70.7,68.9,60.4,58.8,57.2,67,66,66,30.03,30.00,5,3,6,0.00
2013-10-10,75.4,75.4,75.4,74.7,74.7,74.7,98,98,98,29.94,29.94,4,3,7,0.02
2013-10-15,64.0,64.0,63.9,60.3,60.2,59.9,88,88,87,30.06,30.06,0,0,0,0.00
2013-10-16,73.4,73.4,73.4,73.0,73.0,73.0,99,99,99,29.73,29.73,6,6,6,0.00
2013-10-17,60.1,59.2,58.6,55.8,55.5,55.0,88,88,86,29.91,29.88,4,3,5,0.00
2013-10-19,77.9,77.9,77.9,62.2,62.2,62.2,59,59,59,30.15,30.15,2,2,2,0.00
2013-10-20,79.5,77.7,75.7,65.1,64.2,63.5,68,63,59,30.26,30.23,6,4,11,0.00
2013-10-21,77.0,76.9,76.8,66.7,66.5,66.2,71,70,70,30.20,30.20,7,7,14,0.00
2013-10-22,83.1,83.1,83.1,67.3,67.3,67.3,59,59,59,30.15,30.15,3,3,3,0.00
2013-10-25,69.8,69.8,69.8,68.9,68.9,68.9,97,97,97,30.15,30.15,3,3,4,0.00
2013-10-26,71.2,71.2,71.1,70.9,70.8,70.7,99,99,99,30.17,30.17,2,1,3,0.00
2013-10-29,73.4,73.4,73.4,69.6,69.6,69.6,88,88,88,29.97,29.97,0,0,0,0.00
2013-11-1,66.4,66.4,66.4,63.9,63.9,63.9,92,92,92,30.12,30.12,0,0,0,0.00
2013-11-3,71.1,71.1,71.1,69.4,69.4,69.4,95,95,95,30.06,30.06,3,3,4,0.00
2013-11-6,71.1,71.1,71.1,69.4,69.4,69.4,95,95,95,30.06,30.06,3,3,4,0.00
2013-11-7,71.1,71.1,71.1,69.4,69.4,69.4,95,95,95,30.06,30.06,3,3,4,0.00